Weather History for Sauk Centre, MN

Change the Weather History Date:

Tuesday, August 13, 2013

  Actual Average (KGHW) Record (KGHW)
Temperature  
Mean Temperature 59 °F -  
Max Temperature 73 °F 81 °F 93 °F (1965)
Min Temperature 45 °F 57 °F 43 °F (1964)
Degree Days  
Heating Degree Days 6    
Growing Degree Days 9 (Base 50)    
Moisture  
Dew Point 47 °F    
Average Humidity 64    
Maximum Humidity 96    
Minimum Humidity 36    
Precipitation  
Precipitation 0.00 in - - ()
Sea Level Pressure  
Sea Level Pressure 30.18 in    
Wind  
Wind Speed 3 mph (North)    
Max Wind Speed 10 mph    
Max Gust Speed -    
Visibility 10 miles    
Events      
Averages and records for this station are not official NWS values.
T = Trace of Precipitation, MM = Missing Value Source: NWS Daily Summary

Daily Weather History Graph

Daily Weather History Graph

Search for Another Location

Airport:

Trip Planner

Search our weather history database for the weather conditions in past years. The results will help you decide how hot, cold, wet, or windy it might be!

Date:

Astronomy

Aug. 13, 2013 Rise Set
Actual Time 6:17 AM CDT 8:30 PM CDT
Civil Twilight 5:45 AM CDT 9:02 PM CDT
Nautical Twilight 5:04 AM CDT 9:43 PM CDT
Astronomical Twilight 4:19 AM CDT 10:28 PM CDT
Moon 1:38 PM CDT (8/13) 11:40 PM CDT (8/13)
Length of Visible Light 15h 17m
Length of Day
14h 12m
Waxing Crescent, 42% of the Moon is Illuminated
Aug 13
Waxing Crescent
Aug 14
First Quarter
Aug 20
Full
Aug 28
Last Quarter
Sep 5
New

Hourly Weather History & Observations

Time (CDT) Temp. Dew Point Humidity Pressure Visibility Wind Dir Wind Speed Gust Speed Precip Events Conditions
12:12 AM 58.3 °F 49.5 °F 72% 30.13 in 10.0 mi North 6.9 mph - N/A   Clear
12:33 AM 58.3 °F 49.1 °F 71% 30.13 in 10.0 mi North 5.8 mph - N/A   Clear
12:53 AM 56.7 °F 49.1 °F 76% 30.13 in 10.0 mi North 4.6 mph - N/A   Clear
1:13 AM 55.9 °F 48.6 °F 76% 30.13 in 10.0 mi North 5.8 mph - N/A   Clear
1:33 AM 55.4 °F 48.2 °F 77% 30.14 in 10.0 mi North 5.8 mph - N/A   Clear
1:52 AM 54.9 °F 48.2 °F 78% 30.14 in 10.0 mi NNE 4.6 mph - N/A   Clear
2:13 AM 55.4 °F 48.6 °F 78% 30.15 in 10.0 mi North 4.6 mph - N/A   Clear
2:33 AM 53.2 °F 48.2 °F 83% 30.15 in 10.0 mi Calm Calm - N/A   Clear
2:52 AM 52.7 °F 48.0 °F 84% 30.16 in 10.0 mi Calm Calm - N/A   Clear
3:13 AM 51.8 °F 46.6 °F 82% 30.15 in 10.0 mi NW 3.5 mph - N/A   Clear
3:33 AM 50.9 °F 47.5 °F 88% 30.16 in 10.0 mi Calm Calm - N/A   Clear
3:52 AM 51.8 °F 47.5 °F 85% 30.16 in 10.0 mi Calm Calm - N/A   Clear
4:13 AM 51.1 °F 48.2 °F 90% 30.16 in 10.0 mi North 3.5 mph - N/A   Clear
4:33 AM 50.5 °F 47.3 °F 89% 30.16 in 10.0 mi Calm Calm - N/A   Clear
4:52 AM 48.4 °F 45.7 °F 90% 30.15 in 10.0 mi Calm Calm - N/A   Clear
5:13 AM 49.6 °F 47.5 °F 92% 30.16 in 10.0 mi Calm Calm - N/A   Clear
5:33 AM 48.4 °F 45.7 °F 90% 30.16 in 10.0 mi Calm Calm - N/A   Clear
5:52 AM 46.8 °F 45.1 °F 94% 30.16 in 10.0 mi Calm Calm - N/A   Clear
6:13 AM 48.2 °F 45.9 °F 92% 30.17 in 10.0 mi Calm Calm - N/A   Clear
6:33 AM 46.2 °F 45.0 °F 95% 30.17 in 10.0 mi Calm Calm - N/A   Clear
6:52 AM 45.9 °F 44.8 °F 96% 30.18 in 10.0 mi Calm Calm - N/A   Clear
7:13 AM 47.7 °F 46.4 °F 95% 30.18 in 10.0 mi Calm Calm - N/A   Clear
7:33 AM 50.0 °F 47.5 °F 91% 30.18 in 10.0 mi Calm Calm - N/A   Clear
7:52 AM 52.9 °F 49.8 °F 89% 30.19 in 10.0 mi Calm Calm - N/A   Clear
8:13 AM 54.7 °F 50.9 °F 87% 30.20 in 10.0 mi Calm Calm - N/A   Clear
8:32 AM 57.2 °F 52.0 °F 83% 30.21 in 10.0 mi Calm Calm - N/A   Clear
8:52 AM 59.5 °F 52.7 °F 78% 30.22 in 10.0 mi Calm Calm - N/A   Clear
9:13 AM 62.1 °F 52.9 °F 72% 30.22 in 10.0 mi Calm Calm - N/A   Clear
9:33 AM 63.9 °F 52.5 °F 67% 30.22 in 10.0 mi Calm Calm - N/A   Clear
9:52 AM 65.1 °F 51.4 °F 61% 30.23 in 10.0 mi WNW 4.6 mph - N/A   Clear
10:13 AM 65.7 °F 51.1 °F 59% 30.23 in 10.0 mi North 4.6 mph - N/A   Clear
10:33 AM 67.3 °F 49.6 °F 53% 30.23 in 10.0 mi NNE 4.6 mph - N/A   Clear
10:52 AM 68.2 °F 46.0 °F 45% 30.23 in 10.0 mi Calm Calm - N/A   Scattered Clouds
11:13 AM 67.1 °F 45.7 °F 46% 30.23 in 10.0 mi North 3.5 mph - N/A   Scattered Clouds
11:33 AM 66.4 °F 45.0 °F 46% 30.23 in 10.0 mi Calm Calm - N/A   Scattered Clouds
11:52 AM 67.8 °F 45.9 °F 45% 30.22 in 10.0 mi North 4.6 mph - N/A   Clear
12:13 PM 66.7 °F 46.6 °F 48% 30.22 in 10.0 mi North 4.6 mph - N/A   Clear
12:32 PM 69.6 °F 44.1 °F 40% 30.22 in 10.0 mi North 4.6 mph - N/A   Clear
12:53 PM 70.3 °F 44.4 °F 39% 30.22 in 10.0 mi NE 8.1 mph - N/A   Clear
1:13 PM 70.5 °F 43.9 °F 38% 30.22 in 10.0 mi NW 3.5 mph - N/A   Clear
1:32 PM 69.8 °F 43.0 °F 38% 30.22 in 10.0 mi North 3.5 mph - N/A   Clear
1:53 PM 71.6 °F 43.9 °F 37% 30.22 in 10.0 mi NNW 4.6 mph - N/A   Clear
2:13 PM 71.4 °F 43.9 °F 37% 30.21 in 10.0 mi North 8.1 mph - N/A   Clear
2:32 PM 72.1 °F 44.2 °F 37% 30.21 in 10.0 mi North 10.4 mph - N/A   Clear
2:53 PM 71.8 °F 43.2 °F 36% 30.21 in 10.0 mi North 4.6 mph - N/A   Clear
3:13 PM 72.0 °F 44.6 °F 37% 30.19 in 10.0 mi NE 3.5 mph - N/A   Clear
3:32 PM 72.0 °F 43.7 °F 36% 30.19 in 10.0 mi North 4.6 mph - N/A   Clear
3:53 PM 72.9 °F 44.4 °F 36% 30.19 in 10.0 mi NE 8.1 mph - N/A   Clear
4:13 PM 73.2 °F 45.0 °F 36% 30.19 in 10.0 mi North 8.1 mph - N/A   Clear
4:32 PM 72.5 °F 44.2 °F 36% 30.18 in 10.0 mi NNE 6.9 mph - N/A   Clear
4:53 PM 72.7 °F 43.9 °F 36% 30.18 in 10.0 mi North 8.1 mph - N/A   Clear
5:13 PM 73.2 °F 44.4 °F 36% 30.17 in 10.0 mi North 6.9 mph - N/A   Clear
5:32 PM 72.5 °F 43.7 °F 36% 30.17 in 10.0 mi NNW 6.9 mph - N/A   Clear
5:53 PM 72.3 °F 43.9 °F 36% 30.16 in 10.0 mi North 3.5 mph - N/A   Clear
6:13 PM 72.5 °F 43.7 °F 36% 30.17 in 10.0 mi NW 4.6 mph - N/A   Clear
6:32 PM 72.3 °F 44.4 °F 37% 30.16 in 10.0 mi Calm Calm - N/A   Clear
6:53 PM 72.1 °F 44.1 °F 36% 30.16 in 10.0 mi NNW 4.6 mph - N/A   Clear
7:13 PM 71.6 °F 43.7 °F 37% 30.16 in 10.0 mi North 4.6 mph - N/A   Clear
7:32 PM 71.1 °F 44.1 °F 38% 30.16 in 10.0 mi North 4.6 mph - N/A   Clear
7:53 PM 70.2 °F 44.2 °F 39% 30.16 in 10.0 mi Calm Calm - N/A   Clear
8:13 PM 68.0 °F 47.5 °F 48% 30.16 in 10.0 mi Calm Calm - N/A   Clear
8:32 PM 64.4 °F 48.2 °F 56% 30.16 in 10.0 mi Calm Calm - N/A   Clear
8:53 PM 62.2 °F 48.9 °F 62% 30.17 in 10.0 mi Calm Calm - N/A   Clear
9:13 PM 61.0 °F 49.6 °F 66% 30.17 in 10.0 mi Calm Calm - N/A   Clear
9:32 PM 59.0 °F 51.1 °F 75% 30.17 in 10.0 mi Calm Calm - N/A   Clear
9:53 PM 57.2 °F 50.7 °F 79% 30.17 in 10.0 mi Calm Calm - N/A   Clear
10:13 PM 56.5 °F 51.8 °F 84% 30.17 in 10.0 mi Calm Calm - N/A   Clear
10:32 PM 55.9 °F 52.3 °F 88% 30.18 in 10.0 mi Calm Calm - N/A   Clear
10:53 PM 54.7 °F 50.9 °F 87% 30.18 in 10.0 mi Calm Calm - N/A   Clear
11:13 PM 54.0 °F 50.5 °F 88% 30.19 in 10.0 mi Calm Calm - N/A   Scattered Clouds
11:32 PM 52.7 °F 48.7 °F 86% 30.19 in 10.0 mi NE 5.8 mph - N/A   Mostly Cloudy
11:53 PM 55.9 °F 50.2 °F 81% 30.19 in 10.0 mi Calm Calm - N/A   Scattered Clouds